#timestamp,LO_Frequency,Hit,StdDev 
1561222815.5,286046999.0,N
1561222835.3,286046999.3,N
1561222855.2,286046999.4,N
1561222875.9,286046999.3,N
1561222895.7,286046998.1,N
1561222915.6,286047000.7,N
1561222935.4,286047000.5,N
1561222955.2,286047001.0,N
1561222975.1,286047001.0,N
1561222976.0,286047001.0,N
1561222995.8,286047000.7,N
1561223015.7,286047001.2,N
1561223035.5,286047001.2,N
1561223055.3,286047000.7,N
1561223075.2,286047001.2,N
1561223095.9,286047000.8,N
1561223115.7,286047000.9,N
1561223135.6,286047000.6,N
1561223155.4,286047000.0,N
1561223175.3,286047000.5,N
1561223195.1,286047000.6,N
1561223196.0,286047000.6,N
1561223215.8,286046998.1,N
1561223235.7,286047000.9,N
1561223255.5,286047000.6,N
1561223275.3,286047001.0,N
1561223295.2,286047000.8,N
1561223315.0,286047000.0,N
1561223315.9,286047000.0,N
1561223335.8,286047000.9,N
1561223355.6,286047000.3,N
1561223375.4,286047002.7,Y
1561223395.3,286047000.3,P
1561223415.1,286047001.2,P
1561223435.8,286047001.0,N
1561223455.7,286047000.4,N
1561223475.5,286047000.3,N
1561223495.4,286047000.6,N
1561223515.2,286047001.2,Y
1561223535.0,286046998.4,P
1561223535.9,286046998.4,N
1561223555.8,286046998.2,N
1561223575.6,286046999.4,N
1561223595.4,286046998.1,N
1561223615.3,286046998.5,N
1561223635.1,286047000.8,N
1561223685.9,286046998.8,E
1561223695.8,286047000.8,N
1561223715.6,286047000.7,P
1561223735.5,286046998.1,P
1561223755.3,286047000.8,N
1561223775.2,286047000.2,N
1561223795.9,286047000.3,N
1561223815.7,286047002.4,N
1561223835.6,286047002.3,N
1561223855.4,286047002.5,N
1561223875.3,286047002.4,N
1561223895.1,286046999.8,N
1561223915.8,286047002.8,N
1561223935.7,286047001.6,N
1561223955.5,286047002.7,N
1561223975.4,286047002.7,N
1561223995.2,286046999.9,N
1561224015.0,286047001.2,N
1561224015.9,286047001.2,N
1561224035.8,286047000.8,N
1561224055.6,286047000.6,N
1561224075.4,286047001.0,N
1561224095.3,286046999.0,N
1561224115.1,286047000.8,N
1561224135.9,286046996.6,N
1561224155.7,286046998.9,N
1561224175.5,286046996.8,N
1561224195.4,286046999.5,N
1561224215.2,286046996.5,N
1561224235.0,286046997.0,N
1561224235.9,286046997.0,N
1561224255.8,286046998.0,N
1561224275.6,286046997.9,N
1561224295.5,286046997.1,N
1561224315.3,286046996.6,N
1561224335.1,286046996.9,N
1561224355.9,286046997.6,N
1561224375.7,286046996.3,N
1561224395.6,286046995.7,N
1561224415.4,286046995.5,N
1561224435.2,286046995.8,N
1561224455.1,286046995.4,N
1561224456.0,286046995.4,N
1561224475.8,286046995.6,N
1561224495.7,286046995.8,N
1561224515.5,286046995.2,N
1561224535.3,286046995.7,N
1561224555.2,286046995.7,N
1561224575.9,286046994.9,N
1561224595.7,286046997.2,N
1561224615.6,286046997.1,N
1561224635.4,286046997.6,N
1561224655.3,286046997.7,N
1561224675.1,286046997.5,N
1561224676.0,286046997.5,N
1561224695.8,286046998.0,N
1561224715.7,286046997.8,N
1561224735.5,286046996.9,N
1561224755.3,286046999.3,N
1561224775.2,286046999.6,N
1561224795.0,286046998.3,N
1561224795.9,286046998.3,N
1561224815.8,286046999.0,N
1561224835.6,286046998.9,N
1561224855.4,286046998.7,N
1561224875.3,286046999.4,N
1561224895.1,286046997.0,N
1561224915.9,286046998.8,N
1561224935.7,286046999.0,N
1561224955.5,286046999.6,N
1561224975.4,286046999.2,N
1561224995.2,286046999.0,N
1561225015.1,286046998.4,N
1561225016.0,286046998.4,N
1561225035.8,286046996.6,N
1561225055.6,286046999.1,N
1561225075.5,286046996.6,N
1561225095.3,286046999.3,N
1561225115.2,286046999.6,N
1561225135.9,286046996.6,Y
1561225155.7,286046998.3,P
1561225175.6,286046998.1,P
1561225195.4,286046998.6,P
1561225215.3,286047001.2,Y
1561225235.1,286047002.8,P
1561225236.0,286047002.8,N
1561225255.8,286047002.3,N
1561225275.7,286046999.7,N
1561225295.5,286047002.0,N
1561225315.4,286047001.8,N
1561225335.2,286047001.7,N
1561225355.0,286047001.7,N
1561225355.9,286047001.7,N
1561225375.8,286047001.5,N
1561225395.6,286047004.0,Y
1561225415.4,286047000.9,P
1561225435.3,286047000.7,N
1561225455.1,286047000.4,N
1561225475.9,286047000.2,N
1561225495.7,286047002.3,Y
1561225515.5,286047000.8,P
1561225535.4,286046998.2,P
1561225555.2,286046998.9,N
1561225575.1,286046998.6,N
1561225576.0,286046998.6,N
1561225595.8,286046999.0,N
1561225615.6,286046998.7,N
1561225635.5,286046998.8,N
1561225655.3,286046998.7,N
1561225675.2,286046998.1,N
1561225695.9,286046998.3,N
1561225715.7,286047001.0,N
1561225735.6,286047000.3,N
1561225755.4,286047000.5,N
1561225775.2,286047000.1,N
1561225795.1,286047002.8,N
1561225796.0,286047002.8,N
1561225815.8,286047002.8,N
1561225835.7,286047000.2,N
1561225855.5,286047001.9,N
1561225875.3,286047000.1,N
1561225895.2,286046999.8,N
1561225915.0,286047001.1,N
1561225915.9,286047001.1,N
1561225935.8,286046999.4,N
1561225955.6,286046999.6,N
1561226005.5,286046999.3,E
1561226015.4,286046998.7,N
1561226035.2,286046999.2,P
1561226055.1,286046998.1,P
1561226056.0,286046998.1,Y
1561226075.8,286047000.9,P
1561226095.7,286047000.3,N
1561226115.5,286047001.9,N
1561226135.3,286047001.9,N
1561226155.2,286046999.9,N
1561226175.9,286046999.9,N
1561226195.7,286047002.3,N
1561226215.6,286047002.5,N
1561226235.4,286047002.5,N
1561226255.3,286047001.9,N
1561226275.1,286047003.5,N
1561226276.0,286047003.5,N
1561226295.8,286047001.7,N
1561226315.7,286047002.4,N
1561226335.5,286046999.8,N
1561226355.3,286047001.3,N
1561226375.2,286047001.9,N
1561226395.0,286047001.4,N
1561226395.9,286047001.4,N
